�������l�o���
Date,Time,MP-1(��Sv/h),MP-2(��Sv/h),MP-3(��Sv/h),MP-4(��Sv/h),MP-5(��Sv/h),MP-6(��Sv/h),MP-7(��Sv/h),����,����(m/s),���J
2023/09/06,00:00,0.146,0.133,0.218,0.206,0.211,0.119,0.077,�k,2.2,�L
2023/09/06,00:10,0.148,0.135,0.217,0.205,0.210,0.119,0.078,�k,4.2,�L
2023/09/06,00:20,0.149,0.133,0.219,0.204,0.208,0.119,0.076,�k�k��,2.8,�L
2023/09/06,00:30,0.147,0.133,0.219,0.208,0.210,0.119,0.078,�k,2.7,�L
2023/09/06,00:40,0.147,0.134,0.218,0.207,0.212,0.120,0.078,�k�k��,3.1,��
2023/09/06,00:50,0.149,0.133,0.218,0.205,0.210,0.119,0.076,�k�k��,2.9,��
2023/09/06,01:00,0.148,0.133,0.220,0.205,0.209,0.119,0.077,�k�k��,3.9,��
2023/09/06,01:10,0.147,0.133,0.220,0.208,0.210,0.120,0.077,�k�k��,3.1,�L
2023/09/06,01:20,0.146,0.133,0.217,0.205,0.212,0.119,0.077,�k�k��,3.1,��
2023/09/06,01:30,0.148,0.133,0.216,0.203,0.209,0.119,0.076,�k�k��,4.5,��
2023/09/06,01:40,0.147,0.131,0.220,0.204,0.208,0.119,0.077,�k�k��,4.0,��
2023/09/06,01:50,0.146,0.133,0.218,0.207,0.210,0.119,0.077,�k�k��,3.6,��
2023/09/06,02:00,0.145,0.132,0.217,0.204,0.210,0.120,0.076,�k�k��,3.8,��
2023/09/06,02:10,0.147,0.131,0.217,0.204,0.209,0.119,0.075,�k�k��,3.9,��
2023/09/06,02:20,0.148,0.132,0.218,0.205,0.207,0.119,0.076,�k�k��,4.1,��
2023/09/06,02:30,0.147,0.132,0.217,0.207,0.209,0.119,0.077,�k�k��,3.8,��
2023/09/06,02:40,0.146,0.132,0.215,0.204,0.210,0.119,0.076,�k�k��,4.5,��
2023/09/06,02:50,0.146,0.132,0.216,0.203,0.208,0.119,0.075,�k�k��,4.1,��
2023/09/06,03:00,0.148,0.131,0.218,0.203,0.207,0.118,0.076,�k�k��,4.0,��
2023/09/06,03:10,0.146,0.132,0.217,0.206,0.207,0.119,0.076,�k�k��,4.6,��
2023/09/06,03:20,0.146,0.132,0.216,0.204,0.210,0.119,0.076,�k�k��,4.2,��
2023/09/06,03:30,0.144,0.132,0.215,0.203,0.209,0.118,0.075,�k�k��,4.4,��
2023/09/06,03:40,0.147,0.130,0.218,0.203,0.207,0.118,0.076,�k�k��,4.9,�L
2023/09/06,03:50,0.148,0.132,0.217,0.206,0.207,0.117,0.076,�k�k��,5.1,�L
2023/09/06,04:00,0.147,0.133,0.217,0.206,0.209,0.119,0.077,�k�k��,4.9,�L
2023/09/06,04:10,0.144,0.132,0.216,0.204,0.209,0.119,0.076,�k�k��,5.1,�L
2023/09/06,04:20,0.147,0.132,0.219,0.203,0.208,0.119,0.076,�k�k��,4.8,�L
2023/09/06,04:30,0.148,0.132,0.217,0.205,0.207,0.117,0.076,�k�k��,4.5,�L
2023/09/06,04:40,0.146,0.133,0.215,0.205,0.210,0.119,0.076,�k�k��,3.6,�L
2023/09/06,04:50,0.146,0.132,0.214,0.203,0.207,0.118,0.075,�k,2.8,�L
2023/09/06,05:00,0.146,0.131,0.217,0.203,0.207,0.118,0.077,�k�k��,3.5,�L
2023/09/06,05:10,0.147,0.132,0.215,0.204,0.207,0.118,0.077,�k,2.3,�L
2023/09/06,05:20,0.145,0.132,0.214,0.204,0.209,0.118,0.076,�k,1.7,�L
2023/09/06,05:30,0.145,0.131,0.214,0.201,0.208,0.119,0.076,�k,2.0,��
2023/09/06,05:40,0.146,0.130,0.216,0.202,0.207,0.119,0.076,�k�k��,1.7,��
2023/09/06,05:50,0.147,0.131,0.215,0.204,0.207,0.117,0.077,�k�k��,2.6,�L
2023/09/06,06:00,0.145,0.131,0.213,0.204,0.208,0.118,0.076,�k�k��,2.8,�L
2023/09/06,06:10,0.144,0.130,0.214,0.200,0.207,0.118,0.074,�k,2.6,�L
2023/09/06,06:20,0.144,0.130,0.217,0.201,0.206,0.117,0.075,�k�k��,2.3,�L
2023/09/06,06:30,0.146,0.131,0.216,0.203,0.206,0.117,0.075,�k,1.9,�L
2023/09/06,06:40,0.145,0.131,0.214,0.203,0.209,0.117,0.074,�k�k��,1.7,�L
2023/09/06,06:50,0.144,0.130,0.213,0.201,0.208,0.118,0.074,�k�k��,1.5,�L
2023/09/06,07:00,0.143,0.129,0.217,0.200,0.206,0.117,0.073,�k�k��,1.5,�L
2023/09/06,07:10,0.145,0.129,0.215,0.202,0.205,0.116,0.075,�k�k��,1.6,��
2023/09/06,07:20,0.146,0.132,0.212,0.203,0.206,0.116,0.075,�k�k��,0.7,�L
2023/09/06,07:30,0.144,0.131,0.212,0.201,0.208,0.116,0.073,�k,1.5,�L
2023/09/06,07:40,0.144,0.130,0.214,0.200,0.207,0.117,0.074,�k�k��,0.7,�L
2023/09/06,07:50,0.143,0.129,0.215,0.200,0.205,0.117,0.074,��,2.1,��
2023/09/06,08:00,0.145,0.129,0.213,0.203,0.205,0.117,0.074,���k��,2.8,��
2023/09/06,08:10,0.145,0.130,0.212,0.202,0.207,0.117,0.074,���k��,3.2,��
2023/09/06,08:20,0.144,0.130,0.212,0.200,0.207,0.117,0.074,��,2.3,��
2023/09/06,08:30,0.142,0.130,0.214,0.201,0.207,0.117,0.073,��,3.2,��
2023/09/06,08:40,0.142,0.128,0.215,0.199,0.205,0.117,0.073,���k��,2.9,��
2023/09/06,08:50,0.142,0.129,0.214,0.201,0.205,0.117,0.074,-,CALM,��
2023/09/06,09:00,0.143,0.129,0.212,0.202,0.205,0.116,0.074,-,CALM,��
2023/09/06,09:10,0.142,0.129,0.212,0.202,0.204,0.116,0.074,-,CALM,��
2023/09/06,09:20,0.144,0.128,0.212,0.201,0.208,0.116,0.074,���k��,2.3,�L
2023/09/06,09:30,0.145,0.130,0.212,0.200,0.208,0.117,0.074,-,CALM,�L
2023/09/06,09:40,0.144,0.130,0.212,0.200,0.207,0.117,0.074,���쓌,3.1,�L
2023/09/06,09:50,0.144,0.130,0.214,0.200,0.205,0.117,0.074,��,2.3,�L
2023/09/06,10:00,0.144,0.130,0.215,0.202,0.205,0.117,0.074,��,4.9,�L
2023/09/06,10:10,0.143,0.130,0.214,0.203,0.205,0.116,0.075,�k��,11.2,�L
2023/09/06,10:20,0.143,0.130,0.212,0.202,0.205,0.116,0.074,��,2.7,�L
2023/09/06,10:30,0.144,0.130,0.208,0.199,0.207,0.118,0.074,���k��,9.2,�L
2023/09/06,10:40,0.146,0.132,0.212,0.197,0.207,0.117,0.075,-,CALM,�L
2023/09/06,10:50,0.146,0.132,0.213,0.199,0.205,0.118,0.079,���쓌,7.7,�L
2023/09/06,11:00,0.143,0.131,0.210,0.196,0.203,0.118,0.079,�쓌,4.3,�L
2023/09/06,11:10,0.138,0.131,0.203,0.193,0.208,0.118,0.081,-,CALM,�L
2023/09/06,11:20,0.142,0.135,0.209,0.195,0.207,0.121,0.083,��쓌,5.7,�L
2023/09/06,11:30,0.143,0.135,0.210,0.200,0.205,0.121,0.083,�쓌,5.9,�L
2023/09/06,11:40,0.140,0.134,0.209,0.198,0.206,0.120,0.082,-,CALM,�L
2023/09/06,11:50,0.142,0.135,0.210,0.199,0.210,0.120,0.083,���k��,15.1,�L
2023/09/06,12:00,0.146,0.135,0.213,0.200,0.209,0.122,0.084,��,11.2,�L
2023/09/06,12:10,0.145,0.137,0.213,0.202,0.208,0.121,0.085,���k��,24.1,�L
2023/09/06,12:20,0.144,0.135,0.211,0.202,0.209,0.121,0.084,��,8.5,�L
2023/09/06,12:30,0.145,0.136,0.212,0.199,0.212,0.121,0.085,��,3.5,�L
2023/09/06,12:40,0.146,0.136,0.214,0.204,0.210,0.121,0.084,��쐼,2.7,�L
2023/09/06,12:50,0.146,0.135,0.214,0.205,0.208,0.122,0.083,��쐼,1.9,�L
2023/09/06,13:00,0.143,0.135,0.212,0.204,0.210,0.119,0.082,-,CALM,�L
2023/09/06,13:10,0.145,0.134,0.213,0.202,0.211,0.119,0.082,��,1.2,�L
2023/09/06,13:20,0.145,0.134,0.214,0.201,0.210,0.117,0.081,���쐼,0.9,�L
2023/09/06,13:30,0.144,0.132,0.212,0.203,0.208,0.117,0.080,-,CALM,��
2023/09/06,13:40,0.142,0.130,0.209,0.203,0.206,0.117,0.078,�쐼,0.7,��
2023/09/06,13:50,0.142,0.129,0.208,0.201,0.204,0.116,0.077,-,CALM,��
2023/09/06,14:00,0.141,0.129,0.208,0.198,0.206,0.115,0.076,-,CALM,��
2023/09/06,14:10,0.142,0.130,0.211,0.199,0.208,0.114,0.075,�k��,1.5,��
2023/09/06,14:20,0.143,0.129,0.212,0.197,0.206,0.114,0.076,�k,2.6,�L
2023/09/06,14:30,0.143,0.129,0.209,0.200,0.204,0.115,0.075,�k�k��,1.5,�L
2023/09/06,14:40,0.142,0.129,0.209,0.201,0.204,0.115,0.076,�k��,6.1,�L
2023/09/06,14:50,0.142,0.129,0.209,0.200,0.208,0.117,0.077,�k��,5.6,�L
2023/09/06,15:00,0.145,0.132,0.213,0.200,0.209,0.116,0.077,�k��,7.0,�L
2023/09/06,15:10,0.145,0.130,0.213,0.203,0.207,0.119,0.080,�k��,6.1,�L
2023/09/06,15:20,0.144,0.132,0.212,0.202,0.208,0.119,0.079,�k��,4.9,�L
2023/09/06,15:30,0.147,0.134,0.214,0.201,0.210,0.119,0.080,�k�k��,3.1,�L
2023/09/06,15:40,0.145,0.131,0.212,0.199,0.207,0.119,0.081,�k��,5.1,�L
2023/09/06,15:50,0.143,0.132,0.209,0.200,0.207,0.121,0.082,�k�k��,3.0,�L
2023/09/06,16:00,0.145,0.134,0.211,0.201,0.211,0.122,0.082,�k,3.0,�L
2023/09/06,16:10,0.145,0.133,0.213,0.202,0.210,0.120,0.082,�k�k��,4.9,�L
2023/09/06,16:20,0.144,0.132,0.212,0.203,0.208,0.120,0.081,�k�k��,5.4,�L
2023/09/06,16:30,0.143,0.132,0.210,0.202,0.209,0.119,0.079,�k�k��,5.5,��
2023/09/06,16:40,0.144,0.131,0.212,0.200,0.210,0.118,0.078,�k�k��,4.7,��
2023/09/06,16:50,0.143,0.129,0.210,0.202,0.206,0.117,0.078,�k�k��,5.3,��
2023/09/06,17:00,0.142,0.129,0.209,0.200,0.205,0.117,0.077,�k�k��,5.6,��
2023/09/06,17:10,0.142,0.130,0.210,0.198,0.207,0.116,0.077,�k�k��,5.2,�L
2023/09/06,17:20,0.143,0.129,0.210,0.201,0.208,0.116,0.076,�k��,4.9,�L
2023/09/06,17:30,0.143,0.129,0.211,0.202,0.205,0.119,0.078,�k�k��,5.3,�L
2023/09/06,17:40,0.145,0.132,0.214,0.201,0.210,0.120,0.080,�k�k��,5.0,�L
2023/09/06,17:50,0.147,0.131,0.214,0.203,0.210,0.119,0.080,�k��,4.0,�L
2023/09/06,18:00,0.146,0.133,0.213,0.204,0.208,0.119,0.080,�k�k��,3.4,�L
2023/09/06,18:10,0.146,0.132,0.215,0.202,0.212,0.120,0.079,�k�k��,4.0,�L
2023/09/06,18:20,0.148,0.132,0.214,0.203,0.209,0.119,0.080,�k�k��,4.5,�L
2023/09/06,18:30,0.147,0.131,0.214,0.203,0.209,0.119,0.080,�k�k��,4.1,�L
2023/09/06,18:40,0.146,0.133,0.216,0.203,0.211,0.119,0.079,�k�k��,4.4,�L
2023/09/06,18:50,0.145,0.131,0.215,0.203,0.209,0.118,0.079,�k�k��,4.5,�L
2023/09/06,19:00,0.145,0.131,0.212,0.202,0.206,0.117,0.079,�k�k��,5.0,��
2023/09/06,19:10,0.143,0.131,0.212,0.199,0.211,0.118,0.077,�k�k��,5.3,��
2023/09/06,19:20,0.144,0.129,0.211,0.202,0.207,0.117,0.076,�k�k��,3.8,��
2023/09/06,19:30,0.144,0.129,0.210,0.201,0.206,0.115,0.076,�k�k��,3.1,�L
2023/09/06,19:40,0.143,0.129,0.212,0.199,0.208,0.116,0.075,�k�k��,2.9,��
2023/09/06,19:50,0.142,0.128,0.209,0.200,0.205,0.115,0.076,��,0.6,��
2023/09/06,20:00,0.142,0.128,0.210,0.199,0.204,0.115,0.074,�k�k��,3.1,��
2023/09/06,20:10,0.141,0.128,0.211,0.198,0.207,0.115,0.074,�k�k��,3.9,��
2023/09/06,20:20,0.144,0.128,0.209,0.198,0.207,0.115,0.074,�k�k��,3.4,��
2023/09/06,20:30,0.142,0.128,0.210,0.201,0.205,0.114,0.075,�k�k��,2.5,��
2023/09/06,20:40,0.141,0.128,0.210,0.198,0.206,0.115,0.074,�k��,2.1,��
2023/09/06,20:50,0.143,0.127,0.209,0.199,0.206,0.115,0.075,�k��,4.0,�L
2023/09/06,21:00,0.142,0.129,0.211,0.199,0.204,0.114,0.074,�k�k��,5.3,�L
2023/09/06,21:10,0.141,0.128,0.211,0.198,0.205,0.113,0.074,�k�k��,5.9,��
2023/09/06,21:20,0.143,0.126,0.209,0.199,0.207,0.115,0.074,�k�k��,5.9,��
2023/09/06,21:30,0.142,0.128,0.209,0.199,0.205,0.114,0.073,�k��,5.8,��
2023/09/06,21:40,0.143,0.128,0.210,0.198,0.205,0.113,0.074,�k��,5.7,��
2023/09/06,21:50,0.141,0.127,0.208,0.199,0.206,0.114,0.074,�k��,5.5,��
2023/09/06,22:00,0.142,0.128,0.211,0.200,0.204,0.113,0.074,�k��,5.3,��
2023/09/06,22:10,0.142,0.127,0.210,0.198,0.205,0.114,0.074,�k�k��,5.8,��
2023/09/06,22:20,0.142,0.127,0.209,0.200,0.206,0.114,0.075,�k��,4.7,��
2023/09/06,22:30,0.142,0.129,0.212,0.199,0.203,0.115,0.073,�k��,3.8,��
2023/09/06,22:40,0.142,0.127,0.209,0.198,0.205,0.114,0.075,�k��,5.0,��
2023/09/06,22:50,0.143,0.127,0.209,0.200,0.207,0.114,0.074,�k��,4.8,��
2023/09/06,23:00,0.143,0.128,0.210,0.198,0.205,0.115,0.073,�k�k��,4.7,��
2023/09/06,23:10,0.142,0.126,0.209,0.197,0.205,0.114,0.074,�k��,4.3,��
2023/09/06,23:20,0.143,0.128,0.211,0.200,0.206,0.115,0.074,�k��,5.0,��
2023/09/06,23:30,0.143,0.128,0.211,0.198,0.204,0.115,0.074,�k�k��,4.9,��
2023/09/06,23:40,0.142,0.126,0.209,0.198,0.207,0.113,0.074,�k�k��,4.4,��
2023/09/06,23:50,0.142,0.128,0.212,0.200,0.207,0.115,0.074,�k�k��,3.7,��
